| time (UTC) | temp F | wind direction | speed MPH | gust MPH | rain 1hr in | rain 24hr in | rain mn in | humidity % | barometer mb |
| 20260504020545 | 68 | 139 | 0.0 | 0.0 | 0.00 | 0.00 | 0.00 | 53 | 1017.7 |
| 20260504020049 | 69 | 139 | 0.0 | 0.0 | 0.00 | 0.00 | 0.00 | 52 | 1017.6 |
| 20260504015522 | 69 | 139 | 0.0 | 0.0 | 0.00 | 0.00 | 0.00 | 52 | 1017.4 |
| 20260504015103 | 70 | 139 | 0.0 | 0.0 | 0.00 | 0.00 | 0.00 | 52 | 1017.3 |
| 20260504014504 | 70 | 139 | 1.0 | 0.0 | 0.00 | 0.00 | 0.00 | 49 | 1017.3 |
| 20260504014038 | 70 | 139 | 1.0 | 0.0 | 0.00 | 0.00 | 0.00 | 48 | 1017.3 |
| 20260504013515 | 71 | 139 | 1.0 | 0.0 | 0.00 | 0.00 | 0.00 | 48 | 1017.2 |
| 20260504013018 | 71 | 139 | 1.0 | 0.0 | 0.00 | 0.00 | 0.00 | 47 | 1017.2 |
| 20260504012555 | 71 | 139 | 1.0 | 0.0 | 0.00 | 0.00 | 0.00 | 47 | 1017.1 |
| 20260504012021 | 72 | 139 | 2.0 | 0.0 | 0.00 | 0.00 | 0.00 | 46 | 1017.2 |
| 20260504011528 | 72 | 139 | 2.0 | 0.0 | 0.00 | 0.00 | 0.00 | 46 | 1017.2 |
| 20260504011101 | 72 | 139 | 2.0 | 0.0 | 0.00 | 0.00 | 0.00 | 46 | 1017.2 |
| 20260504010534 | 73 | 139 | 2.0 | 0.0 | 0.00 | 0.00 | 0.00 | 45 | 1017.3 |
| 20260504010039 | 73 | 154 | 2.0 | 0.0 | 0.00 | 0.00 | 0.00 | 45 | 1017.2 |
| 20260504005509 | 73 | 168 | 2.0 | 0.0 | 0.00 | 0.00 | 0.00 | 44 | 1017.2 |
| 20260504005048 | 73 | 175 | 3.0 | 0.0 | 0.00 | 0.00 | 0.00 | 44 | 1017.2 |
| 20260504004549 | 74 | 202 | 4.0 | 0.0 | 0.00 | 0.00 | 0.00 | 43 | 1017.2 |
| 20260504004022 | 74 | 146 | 4.0 | 0.0 | 0.00 | 0.00 | 0.00 | 43 | 1017.2 |
| 20260504003600 | 74 | 143 | 3.0 | 0.0 | 0.00 | 0.00 | 0.00 | 43 | 1017.1 |
| 20260504003108 | 74 | 150 | 3.0 | 0.0 | 0.00 | 0.00 | 0.00 | 42 | 1017.2 |
| 20260504002543 | 75 | 140 | 4.0 | 0.0 | 0.00 | 0.00 | 0.00 | 42 | 1017.3 |
| 20260504002018 | 75 | 121 | 4.0 | 0.0 | 0.00 | 0.00 | 0.00 | 42 | 1017.3 |
| 20260504001527 | 75 | 133 | 4.0 | 0.0 | 0.00 | 0.00 | 0.00 | 42 | 1017.3 |
| 20260504001100 | 75 | 167 | 4.0 | 0.0 | 0.00 | 0.00 | 0.00 | 42 | 1017.3 |
| 20260504000536 | 75 | 182 | 4.0 | 0.0 | 0.00 | 0.00 | 0.00 | 42 | 1017.5 |
| 20260504000051 | 75 | 138 | 4.0 | 0.0 | 0.00 | 0.00 | 0.00 | 41 | 1017.6 |
| 20260503235502 | 75 | 149 | 3.0 | 0.0 | 0.00 | 0.00 | 0.00 | 40 | 1017.6 |
| 20260503235043 | 76 | 149 | 3.0 | 0.0 | 0.00 | 0.00 | 0.00 | 39 | 1017.7 |
| 20260503234542 | 76 | 150 | 4.0 | 0.0 | 0.00 | 0.00 | 0.00 | 39 | 1017.6 |
| 20260503234005 | 76 | 150 | 4.0 | 0.0 | 0.00 | 0.00 | 0.00 | 39 | 1017.6 |
| 20260503233547 | 76 | 136 | 4.0 | 0.0 | 0.00 | 0.00 | 0.00 | 39 | 1017.7 |
| 20260503233036 | 76 | 133 | 3.0 | 0.0 | 0.00 | 0.00 | 0.00 | 38 | 1017.8 |
| 20260503232511 | 76 | 147 | 3.0 | 0.0 | 0.00 | 0.00 | 0.00 | 38 | 1017.8 |
| 20260503232047 | 76 | 122 | 4.0 | 0.0 | 0.00 | 0.00 | 0.00 | 37 | 1017.9 |
| 20260503231534 | 77 | 158 | 5.0 | 0.0 | 0.00 | 0.00 | 0.00 | 36 | 1017.8 |
| 20260503231010 | 78 | 121 | 5.0 | 0.0 | 0.00 | 0.00 | 0.00 | 36 | 1017.7 |
| 20260503230545 | 78 | 140 | 5.0 | 0.0 | 0.00 | 0.00 | 0.00 | 35 | 1017.6 |
| 20260503230034 | 78 | 141 | 5.0 | 0.0 | 0.00 | 0.00 | 0.00 | 36 | 1017.7 |
| 20260503225509 | 78 | 153 | 6.0 | 0.0 | 0.00 | 0.00 | 0.00 | 36 | 1017.7 |
| 20260503225052 | 78 | 140 | 5.0 | 0.0 | 0.00 | 0.00 | 0.00 | 36 | 1017.7 |
| 20260503224557 | 78 | 120 | 5.0 | 0.0 | 0.00 | 0.00 | 0.00 | 36 | 1018.0 |
| 20260503224030 | 78 | 124 | 6.0 | 0.0 | 0.00 | 0.00 | 0.00 | 37 | 1018.0 |
| 20260503223502 | 78 | 137 | 6.0 | 0.0 | 0.00 | 0.00 | 0.00 | 37 | 1018.1 |
| 20260503223053 | 79 | 159 | 5.0 | 0.0 | 0.00 | 0.00 | 0.00 | 37 | 1018.1 |
| 20260503222526 | 79 | 133 | 4.0 | 0.0 | 0.00 | 0.00 | 0.00 | 37 | 1018.2 |
| 20260503222101 | 79 | 132 | 4.0 | 0.0 | 0.00 | 0.00 | 0.00 | 36 | 1018.1 |
| 20260503221554 | 78 | 150 | 6.0 | 0.0 | 0.00 | 0.00 | 0.00 | 36 | 1018.3 |
| 20260503221025 | 78 | 247 | 7.0 | 0.0 | 0.00 | 0.00 | 0.00 | 35 | 1018.3 |
| 20260503220605 | 78 | 150 | 6.0 | 0.0 | 0.00 | 0.00 | 0.00 | 37 | 1018.4 |
| 20260503220008 | 78 | 123 | 6.0 | 0.0 | 0.00 | 0.00 | 0.00 | 35 | 1018.4 |
| 20260503215548 | 79 | 191 | 6.0 | 0.0 | 0.00 | 0.00 | 0.00 | 35 | 1018.5 |
| 20260503215020 | 78 | 146 | 6.0 | 0.0 | 0.00 | 0.00 | 0.00 | 36 | 1018.5 |
| 20260503214526 | 78 | 150 | 5.0 | 0.0 | 0.00 | 0.00 | 0.00 | 36 | 1018.7 |
| 20260503214100 | 78 | 156 | 5.0 | 0.0 | 0.00 | 0.00 | 0.00 | 36 | 1018.7 |
| 20260503213536 | 79 | 184 | 5.0 | 0.0 | 0.00 | 0.00 | 0.00 | 37 | 1018.9 |
| 20260503213039 | 79 | 144 | 5.0 | 0.0 | 0.00 | 0.00 | 0.00 | 36 | 1019.0 |
| 20260503212509 | 79 | 144 | 5.0 | 0.0 | 0.00 | 0.00 | 0.00 | 37 | 1019.1 |
| 20260503212048 | 79 | 128 | 4.0 | 0.0 | 0.00 | 0.00 | 0.00 | 37 | 1019.2 |
| 20260503211533 | 78 | 150 | 5.0 | 0.0 | 0.00 | 0.00 | 0.00 | 35 | 1019.3 |
| 20260503211006 | 79 | 150 | 5.0 | 0.0 | 0.00 | 0.00 | 0.00 | 35 | 1019.3 |
| 20260503210549 | 79 | 145 | 5.0 | 0.0 | 0.00 | 0.00 | 0.00 | 35 | 1019.3 |
| 20260503210049 | 79 | 151 | 4.0 | 0.0 | 0.00 | 0.00 | 0.00 | 36 | 1019.5 |
| 20260503205526 | 79 | 143 | 5.0 | 0.0 | 0.00 | 0.00 | 0.00 | 35 | 1019.7 |
| 20260503205103 | 79 | 143 | 5.0 | 0.0 | 0.00 | 0.00 | 0.00 | 34 | 1019.7 |
| 20260503204605 | 79 | 138 | 5.0 | 0.0 | 0.00 | 0.00 | 0.00 | 32 | 1019.6 |
| 20260503204038 | 80 | 159 | 4.0 | 0.0 | 0.00 | 0.00 | 0.00 | 34 | 1019.7 |
| 20260503203515 | 80 | 180 | 4.0 | 0.0 | 0.00 | 0.00 | 0.00 | 34 | 1019.8 |
| 20260503203024 | 80 | 137 | 5.0 | 0.0 | 0.00 | 0.00 | 0.00 | 37 | 1019.9 |
| 20260503202555 | 80 | 123 | 6.0 | 0.0 | 0.00 | 0.00 | 0.00 | 35 | 1020.0 |
| 20260503202026 | 80 | 161 | 5.0 | 0.0 | 0.00 | 0.00 | 0.00 | 36 | 1020.3 |
| 20260503201536 | 80 | 183 | 4.0 | 0.0 | 0.00 | 0.00 | 0.00 | 35 | 1020.3 |
| 20260503201004 | 79 | 138 | 4.0 | 0.0 | 0.00 | 0.00 | 0.00 | 34 | 1020.5 |
| 20260503200540 | 79 | 176 | 4.0 | 0.0 | 0.00 | 0.00 | 0.00 | 33 | 1020.5 |
| 20260503200046 | 79 | 142 | 4.0 | 0.0 | 0.00 | 0.00 | 0.00 | 35 | 1020.5 |
| 20260503195515 | 79 | 152 | 5.0 | 0.0 | 0.00 | 0.00 | 0.00 | 33 | 1020.6 |
| 20260503195054 | 79 | 139 | 4.0 | 0.0 | 0.00 | 0.00 | 0.00 | 33 | 1020.7 |
| 20260503194542 | 79 | 141 | 5.0 | 0.0 | 0.00 | 0.00 | 0.00 | 37 | 1020.7 |
| 20260503194014 | 79 | 140 | 5.0 | 0.0 | 0.00 | 0.00 | 0.00 | 34 | 1020.8 |
| 20260503193553 | 79 | 134 | 3.0 | 0.0 | 0.00 | 0.00 | 0.00 | 35 | 1020.8 |
| 20260503193049 | 79 | 169 | 3.0 | 0.0 | 0.00 | 0.00 | 0.00 | 36 | 1020.8 |
| 20260503192515 | 79 | 154 | 4.0 | 0.0 | 0.00 | 0.00 | 0.00 | 35 | 1021.0 |
| 20260503192057 | 79 | 140 | 5.0 | 0.0 | 0.00 | 0.00 | 0.00 | 37 | 1021.0 |
| 20260503191610 | 78 | 142 | 6.0 | 0.0 | 0.00 | 0.00 | 0.00 | 34 | 1021.1 |
| 20260503191043 | 79 | 136 | 5.0 | 0.0 | 0.00 | 0.00 | 0.00 | 36 | 1021.1 |
| 20260503190520 | 79 | 180 | 4.0 | 0.0 | 0.00 | 0.00 | 0.00 | 36 | 1021.2 |
| 20260503190018 | 78 | 130 | 5.0 | 0.0 | 0.00 | 0.00 | 0.00 | 36 | 1021.3 |
| 20260503185558 | 78 | 115 | 7.0 | 0.0 | 0.00 | 0.00 | 0.00 | 35 | 1021.4 |
| 20260503185033 | 78 | 157 | 6.0 | 0.0 | 0.00 | 0.00 | 0.00 | 33 | 1021.5 |
| 20260503184536 | 78 | 167 | 5.0 | 0.0 | 0.00 | 0.00 | 0.00 | 35 | 1021.7 |
| 20260503184008 | 78 | 169 | 5.0 | 0.0 | 0.00 | 0.00 | 0.00 | 39 | 1021.6 |
| 20260503183544 | 78 | 126 | 5.0 | 0.0 | 0.00 | 0.00 | 0.00 | 37 | 1021.7 |
| 20260503183050 | 79 | 155 | 4.0 | 0.0 | 0.00 | 0.00 | 0.00 | 38 | 1021.7 |
| 20260503182526 | 78 | 186 | 4.0 | 0.0 | 0.00 | 0.00 | 0.00 | 38 | 1021.9 |
| 20260503182105 | 78 | 296 | 5.0 | 0.0 | 0.00 | 0.00 | 0.00 | 38 | 1022.0 |
| 20260503181604 | 78 | 127 | 6.0 | 0.0 | 0.00 | 0.00 | 0.00 | 35 | 1022.1 |
| 20260503181028 | 78 | 143 | 5.0 | 0.0 | 0.00 | 0.00 | 0.00 | 37 | 1022.2 |
| 20260503180501 | 78 | 165 | 5.0 | 0.0 | 0.00 | 0.00 | 0.00 | 35 | 1022.4 |
| 20260503180011 | 78 | 160 | 4.0 | 0.0 | 0.00 | 0.00 | 0.00 | 37 | 1022.5 |
| 20260503175541 | 78 | 147 | 4.0 | 0.0 | 0.00 | 0.00 | 0.00 | 38 | 1022.5 |
| 20260503175017 | 77 | 126 | 4.0 | 0.0 | 0.00 | 0.00 | 0.00 | 38 | 1022.6 |
| 20260503174523 | 77 | 139 | 3.0 | 0.0 | 0.00 | 0.00 | 0.00 | 37 | 1022.7 |
| 20260503174101 | 77 | 140 | 4.0 | 0.0 | 0.00 | 0.00 | 0.00 | 38 | 1022.7 |
| 20260503173538 | 77 | 144 | 4.0 | 0.0 | 0.00 | 0.00 | 0.00 | 35 | 1022.8 |
| 20260503173053 | 77 | 145 | 3.0 | 0.0 | 0.00 | 0.00 | 0.00 | 37 | 1022.8 |
| 20260503172511 | 77 | 165 | 3.0 | 0.0 | 0.00 | 0.00 | 0.00 | 38 | 1022.9 |
| 20260503172048 | 77 | 215 | 2.0 | 0.0 | 0.00 | 0.00 | 0.00 | 44 | 1022.9 |
| 20260503171538 | 77 | 144 | 2.0 | 0.0 | 0.00 | 0.00 | 0.00 | 42 | 1023.0 |
| 20260503171007 | 77 | 223 | 1.0 | 0.0 | 0.00 | 0.00 | 0.00 | 44 | 1023.1 |
| 20260503170544 | 76 | 248 | 1.0 | 0.0 | 0.00 | 0.00 | 0.00 | 42 | 1023.1 |
| 20260503151008 | 71 | 169 | 2.0 | 0.0 | 0.00 | 0.00 | 0.00 | 55 | 1023.7 |
| 20260503150548 | 71 | 263 | 2.0 | 0.0 | 0.00 | 0.00 | 0.00 | 58 | 1023.8 |
| 20260503131040 | 55 | 71 | 1.0 | 0.0 | 0.00 | 0.00 | 0.00 | 91 | 1023.5 |
| 20260503130508 | 54 | 71 | 0.0 | 0.0 | 0.00 | 0.00 | 0.00 | 92 | 1023.4 |
| 20260503130104 | 53 | 71 | 0.0 | 0.0 | 0.00 | 0.00 | 0.00 | 92 | 1023.4 |
| 20260503110512 | 49 | 71 | 0.0 | 0.0 | 0.00 | 0.00 | 0.00 | 92 | 1022.3 |
| 20260503100109 | 49 | 71 | 0.0 | 0.0 | 0.00 | 0.00 | 0.00 | 92 | 1022.1 |
| 20260503090105 | 50 | 71 | 0.0 | 0.0 | 0.00 | 0.00 | 0.00 | 92 | 1022.0 |
| 20260503081534 | 50 | 71 | 0.0 | 0.0 | 0.00 | 0.00 | 0.00 | 92 | 1022.0 |
| 20260503081003 | 50 | 71 | 0.0 | 0.0 | 0.00 | 0.00 | 0.00 | 92 | 1022.0 |
| 20260503080544 | 50 | 71 | 0.0 | 0.0 | 0.00 | 0.00 | 0.00 | 92 | 1022.0 |
| 20260503072527 | 51 | 71 | 0.0 | 0.0 | 0.00 | 0.00 | 0.00 | 92 | 1022.3 |
| 20260503072103 | 51 | 71 | 0.0 | 0.0 | 0.00 | 0.00 | 0.00 | 92 | 1022.3 |
| 20260503071558 | 51 | 71 | 0.0 | 0.0 | 0.00 | 0.00 | 0.00 | 92 | 1022.4 |
| 20260503071025 | 51 | 71 | 0.0 | 0.0 | 0.00 | 0.00 | 0.00 | 92 | 1022.3 |
| 20260503070604 | 51 | 71 | 0.0 | 0.0 | 0.00 | 0.00 | 0.00 | 92 | 1022.4 |
| 20260503060108 | 53 | 71 | 0.0 | 0.0 | 0.00 | 0.00 | 0.00 | 91 | 1022.5 |
| 20260503055005 | 53 | 71 | 0.0 | 0.0 | 0.00 | 0.00 | 0.00 | 91 | 1022.5 |
| 20260503054511 | 53 | 71 | 0.0 | 0.0 | 0.00 | 0.00 | 0.00 | 91 | 1022.6 |
| 20260503054050 | 53 | 71 | 0.0 | 0.0 | 0.00 | 0.00 | 0.00 | 91 | 1022.6 |
| 20260503053520 | 53 | 71 | 0.0 | 0.0 | 0.00 | 0.00 | 0.00 | 91 | 1022.7 |
| 20260503053024 | 53 | 71 | 0.0 | 0.0 | 0.00 | 0.00 | 0.00 | 91 | 1022.7 |
| 20260503052559 | 54 | 71 | 0.0 | 0.0 | 0.00 | 0.00 | 0.00 | 91 | 1022.8 |
| 20260503052027 | 54 | 71 | 0.0 | 0.0 | 0.00 | 0.00 | 0.00 | 91 | 1022.7 |
| 20260503051533 | 54 | 71 | 0.0 | 0.0 | 0.00 | 0.00 | 0.00 | 91 | 1022.7 |
| 20260503051008 | 54 | 71 | 0.0 | 0.0 | 0.00 | 0.00 | 0.00 | 90 | 1022.7 |
| 20260503050544 | 54 | 71 | 0.0 | 0.0 | 0.00 | 0.00 | 0.00 | 90 | 1022.6 |
| 20260503050056 | 54 | 71 | 0.0 | 0.0 | 0.00 | 0.00 | 0.00 | 90 | 1022.6 |
| 20260503045532 | 55 | 71 | 0.0 | 0.0 | 0.00 | 0.00 | 0.00 | 90 | 1022.6 |
| 20260503045002 | 55 | 71 | 0.0 | 0.0 | 0.00 | 0.00 | 0.00 | 90 | 1022.4 |
| 20260503044504 | 55 | 71 | 0.0 | 0.0 | 0.00 | 0.00 | 0.00 | 90 | 1022.5 |
| 20260503044041 | 55 | 71 | 0.0 | 0.0 | 0.00 | 0.00 | 0.00 | 90 | 1022.5 |
| 20260503043510 | 55 | 71 | 0.0 | 0.0 | 0.00 | 0.00 | 0.00 | 90 | 1022.6 |
| 20260503043019 | 55 | 71 | 0.0 | 0.0 | 0.00 | 0.00 | 0.00 | 90 | 1022.5 |
| 20260503042554 | 55 | 71 | 0.0 | 0.0 | 0.00 | 0.00 | 0.00 | 89 | 1022.4 |
| 20260503042025 | 56 | 71 | 0.0 | 0.0 | 0.00 | 0.00 | 0.00 | 89 | 1022.5 |
| 20260503041525 | 56 | 71 | 0.0 | 0.0 | 0.00 | 0.00 | 0.00 | 89 | 1022.4 |
| 20260503041105 | 56 | 71 | 0.0 | 0.0 | 0.00 | 0.00 | 0.00 | 89 | 1022.4 |
| 20260503040533 | 56 | 71 | 0.0 | 0.0 | 0.00 | 0.00 | 0.00 | 89 | 1022.4 |
| 20260503040038 | 56 | 71 | 0.0 | 0.0 | 0.00 | 0.00 | 0.00 | 89 | 1022.4 |
| 20260503035508 | 56 | 71 | 0.0 | 0.0 | 0.00 | 0.00 | 0.00 | 88 | 1022.3 |
| 20260503035047 | 57 | 71 | 0.0 | 0.0 | 0.00 | 0.00 | 0.00 | 88 | 1022.4 |
| 20260503034550 | 57 | 71 | 0.0 | 0.0 | 0.00 | 0.00 | 0.00 | 88 | 1022.4 |
| 20260503034021 | 57 | 71 | 0.0 | 0.0 | 0.00 | 0.00 | 0.00 | 87 | 1022.2 |
| 20260503033557 | 57 | 71 | 0.0 | 0.0 | 0.00 | 0.00 | 0.00 | 87 | 1022.1 |
| 20260503033110 | 58 | 71 | 0.0 | 0.0 | 0.00 | 0.00 | 0.00 | 87 | 1022.1 |
| 20260503032532 | 58 | 71 | 0.0 | 0.0 | 0.00 | 0.00 | 0.00 | 87 | 1022.1 |
| 20260503032008 | 58 | 71 | 0.0 | 0.0 | 0.00 | 0.00 | 0.00 | 86 | 1022.1 |
| 20260503031605 | 58 | 71 | 0.0 | 0.0 | 0.00 | 0.00 | 0.00 | 85 | 1022.1 |
| 20260503031034 | 58 | 71 | 0.0 | 0.0 | 0.00 | 0.00 | 0.00 | 84 | 1021.9 |
| 20260503030507 | 59 | 71 | 0.0 | 0.0 | 0.00 | 0.00 | 0.00 | 83 | 1022.0 |
| 20260503030100 | 59 | 71 | 0.0 | 0.0 | 0.00 | 0.00 | 0.00 | 82 | 1022.1 |
| 20260503025533 | 59 | 71 | 0.0 | 0.0 | 0.00 | 0.00 | 0.00 | 80 | 1022.0 |
| 20260503025009 | 59 | 71 | 0.0 | 0.0 | 0.00 | 0.00 | 0.00 | 79 | 1022.0 |
| 20260503024611 | 60 | 71 | 0.0 | 0.0 | 0.00 | 0.00 | 0.00 | 78 | 1021.9 |
| 20260503024037 | 60 | 71 | 0.0 | 0.0 | 0.00 | 0.00 | 0.00 | 77 | 1021.8 |
| 20260503023506 | 60 | 71 | 0.0 | 0.0 | 0.00 | 0.00 | 0.00 | 77 | 1021.6 |
| 20260503023035 | 61 | 71 | 0.0 | 0.0 | 0.00 | 0.00 | 0.00 | 76 | 1021.4 |
| 20260503022550 | 61 | 71 | 0.0 | 0.0 | 0.00 | 0.00 | 0.00 | 75 | 1021.3 |
| 20260503022025 | 61 | 71 | 0.0 | 0.0 | 0.00 | 0.00 | 0.00 | 74 | 1021.3 |
| 20260503021525 | 62 | 71 | 0.0 | 0.0 | 0.00 | 0.00 | 0.00 | 73 | 1021.3 |
| 20260503021002 | 62 | 71 | 0.0 | 0.0 | 0.00 | 0.00 | 0.00 | 72 | 1021.2 |